Location: Mountain Hill
(32.7232°N, 85.0227°W)
Time: 23:24:28
(UTC+00:00)

ISS - Visible Passes

Search period start: 24 January 2026 00:00
Search period end: 03 February 2026 00:00
Orbit: 413 x 423 km, 51.6° (Epoch: 23 January)

Date Brightness Start Highest point End Pass type
(mag) Time Alt. Az. Time Alt. Az. Time Alt. Az.
27 Jan -1.2 00:46:03 10° NNW 00:46:34 13° NNW 00:46:34 13° NNW visible
27 Jan -1.8 23:58:34 10° N 00:00:27 14° NNE 00:00:57 14° NE visible
29 Jan -3.1 00:46:00 10° NW 00:48:30 45° NNW 00:48:30 45° NNW visible
29 Jan -3.1 23:58:01 10° NNW 00:01:07 35° NE 00:03:20 16° E visible
30 Jan -0.4 01:35:33 10° W 01:36:20 13° W 01:36:20 13° W visible
31 Jan -1.9 00:46:36 10° WNW 00:49:33 29° SW 00:51:32 17° S visible
31 Jan -3.2 23:58:06 10° NW 00:01:24 61° SW 00:04:41 10° SE visible
